Weather History for Ottumwa, IA

Change the Weather History Date:

Sunday, November 9, 2014

  Actual Average Record
Temperature  
Mean Temperature 45 °F 43 °F  
Max Temperature 58 °F 53 °F 77 °F (1999)
Min Temperature 31 °F 33 °F 10 °F (1925)
Degree Days  
Heating Degree Days 20 22  
Month to date heating degree days 186 183  
Since 1 July heating degree days 721 707  
Cooling Degree Days 0 0  
Month to date cooling degree days 0 0  
Year to date cooling degree days 801 938  
Moisture  
Dew Point 33 °F    
Average Humidity 61    
Maximum Humidity 78    
Minimum Humidity 43    
Precipitation  
Precipitation 0.00 in 0.09 in 2.20 in (1919)
Month to date precipitation 0.10 0.80  
Year to date precipitation 39.06 34.12  
Sea Level Pressure  
Sea Level Pressure 29.81 in    
Wind  
Wind Speed 8 mph (South)    
Max Wind Speed 21 mph    
Max Gust Speed 25 mph    
Visibility 10 miles    
Events      
T = Trace of Precipitation, MM = Missing Value Source: NWS Daily Summary

Daily Weather History Graph

Daily Weather History Graph

Search for Another Location

Airport:

Trip Planner

Search our weather history database for the weather conditions in past years. The results will help you decide how hot, cold, wet, or windy it might be!

Date:

Astronomy

Nov. 09, 2014 Rise Set
Actual Time 6:50 AM CST 4:56 PM CST
Civil Twilight 6:21 AM CST 5:25 PM CST
Nautical Twilight 5:48 AM CST 5:58 PM CST
Astronomical Twilight 5:15 AM CST 6:30 PM CST
Moon 7:29 PM CST (11/9) 9:23 AM CST (11/9)
Length of Visible Light 11h 04m
Length of Day
10h 05m
Waning Gibbous, 91% of the Moon is Illuminated
Nov 9
Waning Gibbous
Nov 14
Last Quarter
Nov 22
New
Nov 29
First Quarter
Dec 6
Full

Hourly Weather History & Observations

Time (CST) Temp. Windchill Dew Point Humidity Pressure Visibility Wind Dir Wind Speed Gust Speed Precip Events Conditions
12:53 AM 35.1 °F 28.6 °F 27.0 °F 72% 29.97 in 10.0 mi South 8.1 mph - N/A   Overcast
1:53 AM 35.1 °F 31.0 °F 28.0 °F 76% 29.95 in 10.0 mi South 4.6 mph - N/A   Overcast
2:53 AM 37.0 °F 31.0 °F 28.0 °F 70% 29.92 in 10.0 mi South 8.1 mph - N/A   Overcast
3:53 AM 37.0 °F 31.6 °F 28.9 °F 73% 29.90 in 10.0 mi South 6.9 mph - N/A   Overcast
4:53 AM 39.0 °F 33.4 °F 28.0 °F 65% 29.89 in 10.0 mi SSW 8.1 mph - N/A   Overcast
5:53 AM 39.0 °F 31.8 °F 28.0 °F 65% 29.87 in 10.0 mi South 11.5 mph - N/A   Scattered Clouds
6:53 AM 39.9 °F 32.9 °F 28.0 °F 63% 29.86 in 10.0 mi SSW 11.5 mph - N/A   Partly Cloudy
7:53 AM 42.1 °F 34.9 °F 28.9 °F 60% 29.84 in 10.0 mi SSW 13.8 mph - N/A   Clear
8:53 AM 46.0 °F 39.6 °F 28.9 °F 51% 29.85 in 10.0 mi WSW 15.0 mph 20.7 mph N/A   Clear
9:53 AM 48.0 °F - 30.0 °F 50% 29.82 in 10.0 mi WSW 18.4 mph - N/A   Clear
10:53 AM 53.1 °F - 32.0 °F 45% 29.81 in 10.0 mi WSW 12.7 mph - N/A   Clear
11:53 AM 55.0 °F - 33.1 °F 43% 29.79 in 10.0 mi WSW 11.5 mph - N/A   Clear
12:53 PM 55.9 °F - 35.1 °F 45% 29.77 in 10.0 mi WSW 10.4 mph - N/A   Clear
1:53 PM 57.0 °F - 35.1 °F 44% 29.76 in 10.0 mi WSW 8.1 mph - N/A   Scattered Clouds
2:53 PM 55.9 °F - 36.0 °F 47% 29.76 in 10.0 mi WNW 4.6 mph - N/A   Overcast
3:53 PM 55.9 °F - 37.0 °F 49% 29.76 in 10.0 mi Calm Calm - N/A   Mostly Cloudy
4:53 PM 53.1 °F - 37.0 °F 55% 29.76 in 10.0 mi Calm Calm - N/A   Mostly Cloudy
5:53 PM 51.1 °F - 37.9 °F 61% 29.76 in 10.0 mi East 4.6 mph - N/A   Overcast
6:53 PM 50.0 °F - 36.0 °F 59% 29.76 in 10.0 mi ENE 3.5 mph - N/A   Scattered Clouds
7:53 PM 50.0 °F - 37.0 °F 61% 29.74 in 10.0 mi ESE 6.9 mph - N/A   Overcast
8:53 PM 48.0 °F - 37.0 °F 66% 29.74 in 10.0 mi ENE 6.9 mph - N/A   Clear
9:53 PM 46.9 °F - 37.0 °F 68% 29.71 in 10.0 mi ESE 6.9 mph - N/A   Clear
10:53 PM 46.9 °F - 36.0 °F 66% 29.71 in 10.0 mi East 5.8 mph - N/A   Clear
11:53 PM 43.0 °F 40.3 °F 36.0 °F 76% 29.70 in 10.0 mi East 4.6 mph - N/A   Clear